Regional Weather Roundup
Issued by NWS Northern Indiana

Home | Current Version | Previous Version | Graphics & Text | Print | Product List | Glossary On
Versions: 1 2 3 4 5 6 7 8 9 10 11 12 13 14 15 16 17 18 19 20 21 22 23 24 25 26 27 28 29 30 31 32 33 34 35 36 37 38 39 40 41 42 43 44 45 46 47 48 49 50
000
ASUS43 KIWX 280110
RWRIWX

KIWX WEATHER ROUNDUP
NATIONAL WEATHER SERVICE NORTHERN INDIANA
900 PM EDT WED JUL 27 2016

NOTE: "FAIR" INDICATES FEW OR NO CLOUDS BELOW 12,000 FEET WITH NO
SIGNIFICANT WEATHER AND/OR OBSTRUCTIONS TO VISIBILITY.

* THESE STATIONS ARE NOT UNDER NWS QUALITY CONTROL. THEY ALSO MAY NOT
  REPORT WEATHER SUCH AS PRECIPITATION OR FOG.

INZ001>027-280200-
NORTHERN INDIANA

CITY           SKY/WX    TMP DP  RH WIND       PRES   REMARKS
GARY*          PTCLDY    81  66  61 E6        29.92S
VALPARAISO     PTCLDY    78  69  73 E3        29.93F
MICHIGAN CITY* CLEAR     75  64  69 CALM      29.93F
LAPORTE*       CLEAR     78  72  81 CALM      29.94F
KNOX*          CLEAR     77  63  61 NE6       29.92F
SOUTH BEND     CLEAR     80  65  59 NE3       29.93F
ELKHART*       CLEAR     81  72  74 N3        29.94F
GOSHEN         PTCLDY    81  65  58 N10       29.94S
MONTICELLO*    CLEAR     79  67  66 CALM      29.93S
LOGANSPORT*    CLEAR     77  68  73 CALM      29.94F
ROCHESTER*     CLEAR     82  68  61 W3        29.94F
WARSAW*        PTCLDY    77  66  69 CALM      29.94S
ANGOLA*          N/A     81  64  57 CALM      29.95S
FORT WAYNE     PTCLDY    78  65  63 W5        29.94S
HUNTINGTON*    PTCLDY    77  67  72 CALM      29.94R
PERU/GRISSOM   CLEAR     80  68  65 W5        29.93S
MARION*        HAZE      77  70  79 CALM      29.95S VSB 1

$$
INZ028>050-280200-
CENTRAL INDIANA

CITY           SKY/WX    TMP DP  RH WIND       PRES   REMARKS
LAFAYETTE      CLEAR     78  69  73 CALM      29.93S
KOKOMO*        PTCLDY    81  66  61 NW5       29.95R
MUNCIE*        CLOUDY    81  67  62 N3        29.94S
INDIANAPOLIS   CLOUDY    83  64  52 N6        29.94S

$$
MIZ043>046-050>051-056>058-064>065-071>073-077>080-280200-
SOUTHWEST LOWER MICHIGAN

CITY           SKY/WX    TMP DP  RH WIND       PRES   REMARKS
BATTLE CREEK   MOCLDY    73  65  75 NE6       29.97S
BENTON HARBOR  PTCLDY    77  64  64 E3        29.92F
COLDWATER*     PTCLDY    76  69  79 CALM      29.95S
HILLSDALE*     CLEAR     73  68  84 CALM      29.96S
HOLLAND        CLEAR     79  68  69 E5        29.93F
GRAND RAPIDS   MOCLDY    75  64  68 SE3       29.95F
KALAMAZOO      CLEAR     78  64  61 NE7       29.95S
STURGIS*       CLEAR     76  69  79 N5        29.94S
THREE RIVERS*  MOCLDY    80  66  62 CALM      29.95S

$$
OHZ001>008-015>018-024>025-280200-
NORTHWEST OHIO

CITY           SKY/WX    TMP DP  RH WIND       PRES   REMARKS
DEFIANCE       PTCLDY    82  64  54 CALM      29.92S
FINDLAY        PTCLDY    84  58  40 NE7       29.92S
TOLEDO METCALF CLEAR     82  65  56 E5        29.92F
LIMA           CLOUDY    81  70  69 CALM      29.93S

$$
AND FOR LAKE MICHIGAN COASTAL AND OPEN LAKE BUOY OBSERVATIONS

STATION/POSITION TEMP    WIND        PRES    VSBY  WAVE
                 AIR SEA DIR/SP/G                  HT/PER
                 (F)     (DEG/KT/KT) (MB)    (MI)  (FT/S)
CALUMET HARBOR    78                   N/A
MICHIGAN CITY     79      40/ 10/ 11   N/A
BURNS HARBOR      79      80/ 13/ 15 1013.5F
SAINT JOSEPH      78      CALM  /  4 1014.2R
SOUTH LAKE BUOY   75 76   80/  6/  8 1012.8F         0
4 MI NW BRIDGMAN  79 79   20/  4/  6 1012.7F         0
MICHIGAN CITY     78 77  100/  4/  6   N/A           1

$$
&&




USA.gov is the U.S. government's official web portal to all federal, state and local government web resources and services.